$DATE,$TIME,DM0600B,DM0602B,DM0604B,DM0614B,DM0616B,DM0618B,DM0624B,DM0628B,DM0630B,DM0634B,DM0606B,DM0608B,DM0610B
10/12/94,00:00:00,0,0,5,0,9,6,15,63,43,0,27,28,30
10/12/94,00:05:00,0,0,1,0,8,6,15,63,43,0,36,40,37
10/12/94,00:10:00,0,0,0,7,9,6,15,63,43,0,31,25,25
10/12/94,00:15:00,3,0,0,0,8,6,15,63,43,0,31,34,39
10/12/94,00:20:00,0,0,0,0,8,6,15,63,43,0,39,38,30
10/12/94,00:25:00,0,0,0,0,8,6,15,63,43,0,27,28,29
10/12/94,00:30:00,0,0,0,0,8,6,15,63,43,0,38,40,37
10/12/94,00:35:00,0,0,0,0,8,6,15,63,43,0,28,26,26
10/12/94,00:40:00,0,0,0,0,8,6,15,63,43,0,34,34,40
10/12/94,00:45:00,0,0,0,0,9,6,15,63,43,0,36,38,28
10/12/94,00:50:00,0,0,0,0,9,6,15,63,51,0,29,27,31
10/12/94,00:55:00,0,0,0,0,9,6,15,64,51,0,40,39,36
10/12/94,01:00:00,0,0,0,0,8,6,15,63,51,0,27,28,26
10/12/94,01:05:00,0,0,0,0,8,6,15,63,51,0,36,33,42
10/12/94,01:10:00,0,0,0,0,9,6,15,63,51,0,37,42,29
10/12/94,01:15:00,0,0,0,0,8,6,14,63,51,0,29,26,38
10/12/94,01:20:00,0,0,0,0,8,6,15,64,51,0,40,38,33
10/12/94,01:25:00,0,0,0,0,8,6,14,64,51,0,29,34,27
10/12/94,01:30:00,0,0,0,0,8,6,14,63,51,0,34,31,39
10/12/94,01:35:00,0,0,0,0,8,6,14,63,51,0,42,41,27
10/12/94,01:40:00,0,0,0,0,8,6,14,63,51,0,28,30,41
10/12/94,01:45:00,0,0,0,0,7,5,13,63,51,0,39,34,31
10/12/94,01:50:00,0,0,0,0,8,6,14,58,51,0,31,41,28
10/12/94,01:55:00,0,0,0,0,8,6,14,64,52,0,33,29,37
10/12/94,02:00:00,0,0,0,0,8,6,14,63,52,0,42,40,26
10/12/94,02:05:00,0,0,0,0,8,6,14,63,52,0,27,30,41
10/12/94,02:10:00,0,0,0,0,7,5,13,64,52,0,38,34,30
10/12/94,02:15:00,0,0,0,0,7,5,12,64,52,0,38,41,37
10/12/94,02:20:00,0,0,0,0,7,5,12,63,52,0,30,40,34
10/12/94,02:25:00,0,0,0,0,7,5,12,63,52,0,41,42,28
10/12/94,02:30:00,0,0,0,0,7,5,12,63,52,0,28,28,38
10/12/94,02:35:00,0,0,0,0,7,5,13,63,52,0,36,37,27
10/12/94,02:40:00,0,0,0,0,7,5,13,63,52,0,40,41,40
10/12/94,02:45:00,0,0,0,0,7,5,13,64,52,0,29,28,31
10/12/94,02:50:00,0,0,0,0,7,5,13,64,52,0,39,38,36
10/12/94,02:55:00,0,0,0,0,7,5,12,63,52,0,36,41,34
10/12/94,03:00:00,0,0,0,0,7,5,12,64,52,0,33,42,28
10/12/94,03:05:00,0,0,0,0,7,5,12,64,52,0,41,28,39
10/12/94,03:10:00,0,0,0,0,7,5,13,64,59,0,32,37,28
10/12/94,03:15:00,0,0,0,0,7,5,13,63,52,0,35,42,40
10/12/94,03:20:00,0,0,0,0,7,5,13,63,52,0,43,28,32
10/12/94,03:25:00,0,0,0,0,7,5,12,63,52,0,28,37,32
10/12/94,03:30:00,0,0,0,0,7,5,12,63,61,0,39,41,37
10/12/94,03:35:00,0,0,0,0,6,5,11,64,52,0,33,26,27
10/12/94,03:40:00,0,0,0,0,6,5,11,64,52,0,34,39,41
10/12/94,03:45:00,0,0,0,0,6,4,11,64,52,0,43,36,28
10/12/94,03:50:00,0,0,0,0,6,4,10,64,52,0,29,31,41
10/12/94,03:55:00,0,0,0,0,5,4,10,63,52,0,39,41,31
10/12/94,04:00:00,0,0,0,0,5,4,9,82,52,0,35,31,32
10/12/94,04:05:00,0,0,0,0,5,4,9,83,52,0,34,34,38
10/12/94,04:10:00,0,0,0,0,5,4,9,82,52,0,43,44,29
10/12/94,04:15:00,0,0,0,0,5,4,9,82,52,0,42,40,33
10/12/94,04:20:00,0,0,0,0,5,4,9,82,51,0,43,43,35
10/12/94,04:25:00,0,0,0,0,4,4,9,82,51,0,42,29,35
10/12/94,04:30:00,0,0,0,0,4,3,8,82,51,0,44,36,34
10/12/94,04:35:00,0,0,0,0,4,3,8,83,52,0,43,44,36
10/12/94,04:40:00,0,0,0,0,4,3,8,82,51,0,42,39,30
10/12/94,04:45:00,0,0,0,0,4,3,7,82,52,0,43,45,39
10/12/94,04:50:00,0,0,0,0,4,3,7,83,52,0,34,29,29
10/12/94,04:55:00,0,0,0,0,3,3,7,91,52,0,39,41,42
10/12/94,05:00:00,0,0,0,0,3,3,7,91,52,0,44,41,29
10/12/94,05:05:00,0,0,0,0,3,3,7,82,52,0,42,43,44
10/12/94,05:10:00,0,0,0,0,3,3,6,82,52,0,36,30,30
10/12/94,05:15:00,0,0,0,0,3,2,6,82,52,0,36,36,44
10/12/94,05:20:00,0,0,0,0,3,2,6,82,44,0,44,43,31
10/12/94,05:25:00,0,0,0,0,2,2,5,82,44,0,42,40,42
10/12/94,05:30:00,0,0,0,0,2,2,5,82,51,0,42,42,32
10/12/94,05:35:00,0,0,0,0,2,2,5,82,44,0,37,42,35
10/12/94,05:40:00,0,0,0,0,2,2,5,82,44,0,35,40,38
10/12/94,05:45:00,0,0,0,0,2,2,4,83,44,0,43,33,37
10/12/94,05:50:00,0,0,0,0,2,2,4,83,44,0,43,41,32
10/12/94,05:55:00,0,0,0,0,2,2,4,83,44,0,43,44,38
10/12/94,06:00:00,0,0,0,0,1,2,4,83,44,0,30,43,36
10/12/94,06:05:00,0,0,0,0,1,1,3,83,44,0,41,36,30
10/12/94,06:10:00,0,0,0,0,1,1,3,83,44,0,44,33,38
10/12/94,06:15:00,0,0,0,0,1,1,3,83,44,0,42,43,29
10/12/94,06:20:00,0,0,0,0,1,1,3,83,44,0,43,41,40
10/12/94,06:25:00,0,0,0,0,1,1,3,83,44,0,30,41,29
10/12/94,06:30:00,0,0,0,0,0,1,2,83,44,0,41,42,43
10/12/94,06:35:00,0,0,0,0,0,1,2,83,52,0,39,30,30
10/12/94,06:40:00,0,0,0,0,0,1,2,79,52,0,33,41,45
10/12/94,06:45:00,0,0,0,0,0,1,2,79,52,0,43,43,31
10/12/94,06:50:00,0,0,0,0,0,1,2,79,52,0,42,41,44
10/12/94,06:55:00,0,0,0,0,0,1,1,82,52,0,43,35,28
10/12/94,07:00:00,0,0,0,0,0,1,1,82,52,0,43,33,44
10/12/94,07:05:00,0,0,0,0,0,0,1,83,52,0,43,44,30
10/12/94,07:10:00,0,0,0,0,0,0,1,82,52,0,39,39,45
10/12/94,07:15:00,0,0,0,0,0,0,1,82,52,0,44,44,32
10/12/94,07:20:00,0,0,0,0,0,0,1,82,52,0,42,28,40
10/12/94,07:25:00,0,0,0,0,0,0,0,137,52,0,42,37,35
10/12/94,07:30:00,0,0,0,0,0,0,0,82,52,0,43,45,39
10/12/94,07:35:00,0,0,0,0,0,0,0,82,52,0,43,38,34
10/12/94,07:40:00,0,0,0,0,0,0,0,82,52,0,43,44,34
10/12/94,07:45:00,0,0,0,0,0,0,0,86,52,0,43,28,36
10/12/94,07:50:00,0,0,0,0,0,0,0,86,52,0,43,36,34
10/12/94,07:55:00,0,0,0,0,0,0,0,82,35,0,36,41,37
10/12/94,08:00:00,0,0,0,0,0,0,0,82,35,0,36,41,31
10/12/94,08:05:00,0,0,0,0,0,0,0,82,39,0,44,41,39
10/12/94,08:10:00,0,0,0,0,0,0,0,85,39,0,29,42,29
10/12/94,08:15:00,0,0,0,0,0,0,0,85,39,0,40,43,42
10/12/94,08:20:00,0,0,0,0,0,0,0,84,39,0,42,43,30
10/12/94,08:25:00,0,0,0,0,0,0,0,84,39,0,42,43,41
10/12/94,08:30:00,0,0,0,0,0,0,0,85,39,0,34,31,34
10/12/94,08:35:00,0,0,0,0,0,0,0,85,39,0,36,39,36
10/12/94,08:40:00,0,0,0,0,0,0,0,86,39,0,43,41,37
10/12/94,08:45:00,0,0,0,0,0,0,0,86,39,0,42,42,30
10/12/94,08:50:00,0,0,0,0,0,0,0,85,39,0,43,43,39
10/12/94,08:55:00,0,0,0,0,0,0,0,85,47,0,31,33,29
10/12/94,09:00:00,0,0,0,0,0,0,0,85,39,0,38,36,42
10/12/94,09:05:00,0,0,0,0,0,0,0,85,39,0,44,43,29
10/12/94,09:10:00,0,0,0,0,0,0,0,108,39,0,29,40,44
10/12/94,09:15:00,0,0,0,0,0,0,0,108,55,0,39,43,31
10/12/94,09:20:00,0,0,0,0,0,0,0,86,55,0,43,42,45
10/12/94,09:25:00,0,0,0,0,0,0,0,82,55,0,43,44,32
10/12/94,09:30:00,0,0,0,0,0,0,0,82,39,0,42,34,39
10/12/94,09:35:00,0,0,0,0,0,0,0,83,39,0,33,36,37
10/12/94,09:40:00,0,0,0,0,0,0,0,82,39,0,43,43,29
10/12/94,09:45:00,0,0,0,0,0,0,0,82,39,0,29,42,39
10/12/94,09:50:00,0,0,0,0,0,0,0,82,39,0,37,42,29
10/12/94,09:55:00,0,0,0,0,0,0,0,82,48,0,42,39,42
10/12/94,10:00:00,0,0,0,0,0,0,0,82,39,0,30,33,30
10/12/94,10:05:00,0,0,0,0,0,0,0,83,39,0,41,41,43
10/12/94,10:10:00,0,0,0,0,0,0,0,82,39,0,37,43,31
10/12/94,10:15:00,0,0,0,0,0,0,0,82,39,0,32,41,37
10/12/94,10:20:00,0,0,0,0,0,0,0,82,39,0,42,42,36
10/12/94,10:25:00,0,0,0,0,0,0,0,83,55,0,42,42,30
10/12/94,10:30:00,0,0,0,0,0,0,0,84,55,0,43,36,41
10/12/94,10:35:00,0,0,0,0,0,0,0,84,55,0,31,35,28
10/12/94,10:40:00,0,0,0,0,0,0,0,86,55,0,43,45,40
10/12/94,10:45:00,0,0,0,0,0,0,0,84,56,0,32,28,37
10/12/94,10:50:00,0,0,0,0,0,0,0,81,56,0,37,38,37
10/12/94,10:55:00,0,0,0,0,0,0,0,81,56,0,44,45,38
10/12/94,11:00:00,0,0,0,0,0,0,0,81,48,0,43,42,36
10/12/94,11:05:00,0,0,0,0,0,0,0,77,40,0,31,41,34
10/12/94,11:10:00,0,0,0,0,0,0,0,77,39,0,36,31,34
10/12/94,11:15:00,0,0,0,0,0,0,0,77,39,0,43,42,33
10/12/94,11:20:00,0,0,0,0,0,0,0,77,39,0,40,41,32
10/12/94,11:25:00,0,0,0,0,0,0,0,77,39,0,43,41,29
10/12/94,11:30:00,0,0,0,0,0,0,0,77,39,0,31,35,31
10/12/94,11:35:00,0,0,0,0,0,0,0,80,34,0,41,35,29
10/12/94,11:40:00,0,0,0,0,0,0,0,80,34,0,36,42,28
10/12/94,11:45:00,0,0,0,0,0,0,0,80,34,0,33,41,28
10/12/94,11:50:00,0,0,0,0,0,0,0,80,34,0,42,41,26
10/12/94,11:55:00,0,0,0,0,0,0,0,80,34,0,29,38,32
10/12/94,12:00:00,0,0,0,0,0,0,0,80,34,0,36,34,44
10/12/94,12:05:00,0,0,0,0,0,0,0,77,33,0,43,42,31
10/12/94,12:10:00,0,0,0,0,0,0,0,77,34,0,28,27,37
10/12/94,12:15:00,0,0,0,0,0,0,0,77,34,0,40,38,36
10/12/94,12:20:00,0,0,0,0,0,0,0,77,33,0,37,41,29
10/12/94,12:25:00,0,0,0,0,0,0,0,77,34,0,31,28,38
10/12/94,12:30:00,0,0,0,0,0,0,0,77,33,0,43,42,27
10/12/94,12:35:00,0,0,0,0,0,0,0,77,33,0,28,29,41
10/12/94,12:40:00,0,0,0,0,0,0,0,77,33,0,37,35,29
10/12/94,12:45:00,0,0,0,0,0,0,0,77,33,0,39,43,42
10/12/94,12:50:00,0,0,0,0,0,0,0,77,33,0,30,28,30
10/12/94,12:55:00,0,0,0,0,0,0,0,77,33,0,41,39,40
10/12/94,13:00:00,0,0,0,0,0,0,0,77,33,0,30,35,33
10/12/94,13:05:00,0,0,0,0,0,0,0,77,33,0,34,32,36
10/12/94,13:10:00,0,0,0,0,0,0,0,77,33,0,43,43,35
10/12/94,13:15:00,0,0,0,0,0,0,0,77,34,0,28,27,28
10/12/94,13:20:00,0,0,0,0,0,0,0,77,33,0,40,37,41
10/12/94,13:25:00,0,0,0,0,0,0,0,77,33,0,31,40,28
10/12/94,13:30:00,0,0,0,0,0,0,0,77,33,0,34,29,43
10/12/94,13:35:00,0,0,0,0,0,0,0,77,33,0,44,42,29
10/12/94,13:40:00,0,0,0,0,0,0,0,77,33,0,28,32,41
10/12/94,13:45:00,0,0,0,0,0,0,0,77,33,0,39,34,33
10/12/94,13:50:00,0,0,0,0,0,0,0,77,34,0,35,43,31
10/12/94,13:55:00,0,0,0,0,0,0,0,77,34,0,32,39,32
10/12/94,14:00:00,0,0,0,0,0,0,0,77,33,0,43,41,33
10/12/94,14:05:00,0,0,0,0,0,0,0,77,33,0,28,42,36
10/12/94,14:10:00,0,0,0,0,0,0,0,77,33,0,38,35,28
10/12/94,14:15:00,0,0,0,0,0,0,0,77,33,0,40,34,41
10/12/94,14:20:00,0,0,0,0,0,0,0,77,33,0,31,41,29
10/12/94,14:25:00,0,0,0,0,0,0,0,77,33,0,42,42,41
10/12/94,14:30:00,0,0,0,0,0,0,0,77,33,0,28,28,32
10/12/94,14:35:00,0,0,0,0,0,0,0,77,34,0,36,41,35
10/12/94,14:40:00,0,0,0,0,0,0,0,77,33,0,41,35,35
10/12/94,14:45:00,0,0,0,0,0,0,0,77,34,0,29,31,29
10/12/94,14:50:00,0,0,0,0,0,0,0,77,33,0,41,42,40
10/12/94,14:55:00,0,0,0,0,0,0,0,77,34,0,31,30,27
10/12/94,15:00:00,0,0,0,0,0,0,0,77,34,0,35,35,43
10/12/94,15:05:00,0,0,0,0,0,0,0,77,33,0,42,43,28
10/12/94,15:10:00,0,0,0,0,0,0,0,77,33,0,28,28,41
10/12/94,15:15:00,0,0,0,0,0,0,0,77,34,0,40,39,33
10/12/94,15:20:00,0,0,0,0,0,0,0,77,33,0,33,37,32
10/12/94,15:25:00,0,0,0,0,0,0,0,77,33,0,32,31,37
10/12/94,15:30:00,0,0,0,0,0,0,0,77,33,0,42,41,29
10/12/94,15:35:00,0,0,0,0,0,0,0,77,34,0,33,37,39
10/12/94,15:40:00,0,0,0,0,0,0,0,77,34,0,34,32,27
10/12/94,15:45:00,0,0,0,0,0,0,0,77,33,0,44,43,39
10/12/94,15:50:00,0,0,0,0,0,0,0,77,34,0,28,27,25
10/12/94,15:55:00,0,0,0,0,0,0,0,77,34,0,39,37,40
10/12/94,16:00:00,0,0,0,0,0,0,0,77,33,0,35,41,27
10/12/94,16:05:00,0,0,0,0,0,0,0,77,34,0,32,30,43
10/12/94,16:10:00,0,0,0,0,0,0,0,77,34,0,43,41,28
10/12/94,16:15:00,0,0,0,0,0,0,0,77,33,0,29,41,42
10/12/94,16:20:00,0,0,0,0,0,0,0,77,33,0,37,42,31
10/12/94,16:25:00,0,0,0,0,0,0,0,77,33,0,39,37,33
10/12/94,16:30:00,0,0,0,0,0,0,0,77,33,0,31,34,36
10/12/94,16:35:00,0,0,0,0,0,0,0,77,33,0,41,41,29
10/12/94,16:40:00,0,0,0,0,0,0,0,77,33,0,31,34,39
10/12/94,16:45:00,0,0,0,0,0,0,0,77,33,0,34,32,29
10/12/94,16:50:00,0,0,0,0,0,0,0,77,33,0,43,43,42
10/12/94,16:55:00,0,0,0,0,0,0,0,77,33,0,28,28,30
10/12/94,17:00:00,0,0,0,0,0,0,0,77,33,0,39,39,38
10/12/94,17:05:00,0,0,0,0,0,0,0,77,34,0,34,38,35
10/12/94,17:10:00,0,0,0,0,0,0,0,77,34,0,31,30,29
10/12/94,17:15:00,0,0,0,0,0,0,0,77,34,0,43,42,38
10/12/94,17:20:00,0,0,0,0,0,0,0,77,34,0,28,30,28
10/12/94,17:25:00,0,0,0,0,0,0,0,77,34,0,38,36,43
10/12/94,17:30:00,0,0,6,0,0,0,0,77,33,0,39,43,29
10/12/94,17:35:00,2,7,9,4,0,0,0,77,33,0,31,41,41
10/12/94,17:40:00,0,0,0,0,0,0,0,77,33,0,41,42,31
10/12/94,17:45:00,2,5,7,3,0,0,0,77,33,0,28,28,32
10/12/94,17:50:00,0,0,0,0,0,0,0,77,33,0,36,40,37
10/12/94,17:55:00,8,9,12,5,0,0,0,77,33,0,36,28,26
10/12/94,18:00:00,0,0,0,0,0,0,0,77,33,0,31,35,38
10/12/94,18:05:00,0,0,0,0,0,0,0,77,33,0,41,43,27
10/12/94,18:10:00,0,0,0,0,0,0,0,77,33,0,29,27,41
10/12/94,18:15:00,0,0,0,0,0,0,0,77,34,0,37,39,28
10/12/94,18:20:00,0,0,0,0,0,0,0,77,33,0,37,35,40
10/12/94,18:25:00,0,0,0,0,0,0,0,77,33,0,31,31,33
10/12/94,18:30:00,0,0,1,0,0,0,0,77,33,0,42,43,35
10/12/94,18:35:00,0,0,0,0,0,0,1,77,33,0,28,27,35
10/12/94,18:40:00,0,0,0,0,0,0,1,77,33,0,37,37,29
10/12/94,18:45:00,18,25,30,24,0,0,1,77,33,0,34,38,38
10/12/94,18:50:00,17,21,23,22,0,0,1,78,33,0,29,26,25
10/12/94,18:55:00,56,40,54,41,0,0,1,77,33,0,29,32,22
10/12/94,19:00:00,37,46,44,45,0,0,1,76,32,0,19,19,19
10/12/94,19:05:00,51,42,61,28,0,1,2,76,32,0,15,14,16
10/12/94,19:10:00,15,8,14,5,0,1,2,77,32,0,13,18,12
10/12/94,19:15:00,16,21,30,22,0,1,2,76,32,0,20,24,18
10/12/94,19:20:00,55,29,44,12,0,1,2,76,36,0,21,16,13
10/12/94,19:25:00,23,30,32,26,1,1,2,128,33,0,17,16,13
10/12/94,19:30:00,39,35,52,26,1,1,3,83,49,0,21,27,28
10/12/94,19:35:00,24,22,30,20,1,1,3,83,49,0,24,22,16
10/12/94,19:40:00,37,31,34,24,1,1,3,83,49,0,18,17,18
10/12/94,19:45:00,16,14,25,21,1,1,3,83,49,0,19,28,17
10/12/94,19:50:00,0,1,9,0,1,1,4,84,49,0,30,23,28
10/12/94,19:55:00,29,35,49,38,1,1,4,83,49,0,24,28,20
10/12/94,20:00:00,17,19,26,15,2,1,4,83,49,0,23,21,26
10/12/94,20:05:00,15,23,26,3,2,2,4,84,49,0,28,28,19
10/12/94,20:10:00,5,2,7,3,2,2,4,84,49,0,22,32,30
10/12/94,20:15:00,0,0,0,0,2,2,4,84,50,0,33,26,23
10/12/94,20:20:00,6,0,10,0,2,2,5,84,50,0,28,36,29
10/12/94,20:25:00,0,0,7,0,2,2,5,84,50,0,29,22,32
10/12/94,20:30:00,7,23,45,20,2,2,5,84,50,0,35,33,22
10/12/94,20:35:00,23,16,16,7,2,2,5,84,50,0,26,33,36
10/12/94,20:40:00,0,0,0,0,3,2,6,85,50,0,37,28,28
10/12/94,20:45:00,3,9,2,0,3,2,6,85,50,0,29,39,30
10/12/94,20:50:00,21,18,18,23,3,2,6,85,50,0,31,27,33
10/12/94,20:55:00,0,0,6,0,3,2,6,85,50,0,40,33,25
10/12/94,21:00:00,1,0,3,0,3,2,6,85,50,0,27,41,39
10/12/94,21:05:00,0,0,0,0,3,2,6,85,50,0,37,26,29
10/12/94,21:10:00,5,8,9,3,3,2,6,85,50,0,35,37,35
10/12/94,21:15:00,8,4,3,9,3,2,7,85,50,0,31,37,33
10/12/94,21:20:00,0,10,6,9,4,3,7,85,50,0,41,29,26
10/12/94,21:25:00,0,0,10,2,4,3,7,85,50,0,27,41,40
10/12/94,21:30:00,0,0,0,0,4,3,7,86,50,0,37,27,28
10/12/94,21:35:00,3,1,3,0,4,3,7,85,50,0,39,35,39
10/12/94,21:40:00,0,1,17,2,4,3,7,86,50,0,30,43,32
10/12/94,21:45:00,0,0,0,0,4,3,7,85,50,0,41,40,34
10/12/94,21:50:00,0,0,0,0,4,3,7,85,50,0,34,42,35
10/12/94,21:55:00,0,0,0,0,4,3,8,86,50,0,33,42,28
10/12/94,22:00:00,0,0,0,0,4,3,8,86,50,0,42,43,40
10/12/94,22:05:00,0,0,0,0,5,3,8,86,50,0,29,28,28
10/12/94,22:10:00,0,0,0,0,5,3,8,79,50,0,37,38,44
10/12/94,22:15:00,0,0,0,0,5,3,9,79,50,0,41,39,29
10/12/94,22:20:00,0,0,0,0,5,3,9,80,50,0,30,29,44
10/12/94,22:25:00,0,0,0,0,5,3,9,79,50,0,41,41,31
10/12/94,22:30:00,0,0,0,0,5,4,9,79,42,0,31,33,40
10/12/94,22:35:00,0,0,0,0,5,4,9,80,50,0,35,32,33
10/12/94,22:40:00,0,0,0,0,5,4,9,79,50,0,44,43,33
10/12/94,22:45:00,0,0,0,0,6,4,10,79,50,0,29,33,36
10/12/94,22:50:00,0,0,0,0,6,4,10,79,50,0,39,34,31
10/12/94,22:55:00,0,0,0,0,6,4,11,79,50,0,41,43,31
10/12/94,23:00:00,0,0,0,0,6,4,11,79,50,0,31,35,33
10/12/94,23:05:00,0,0,0,0,6,4,11,79,53,0,41,32,36
10/12/94,23:10:00,0,0,0,0,6,4,11,79,45,0,32,43,28
10/12/94,23:15:00,0,0,0,0,6,4,11,79,45,0,33,40,39
10/12/94,23:20:00,0,0,0,0,6,4,11,79,45,0,43,43,28
10/12/94,23:25:00,0,0,0,0,6,4,11,79,45,0,27,27,40
10/12/94,23:30:00,0,0,0,0,6,4,11,79,45,0,40,40,28
10/12/94,23:35:00,0,0,0,0,6,4,11,79,53,0,34,35,43
10/12/94,23:40:00,0,0,0,0,6,4,11,79,53,0,32,32,30
10/12/94,23:45:00,0,0,0,0,6,4,11,79,53,0,42,42,43
10/12/94,23:50:00,0,0,0,0,6,4,11,160,53,0,33,41,30
10/12/94,23:55:00,0,0,0,0,6,4,11,162,53,0,38,42,47
10/13/94,00:00:00,0,0,0,0,6,4,11,82,53,0,44,44,31
